Location: Bothwell
(42.3833°S, 147.0000°E)
Time: 21:03:31
(UTC+11:00)

AO-85 - Pass Details

Date: 04 October 2022
Orbit: 513 x 757 km, 64.8° (Epoch: 24 November)

Event Time Altitude Azimuth Distance (km) Brightness Sun altitude
Rises 04:30:30 0° 208° (SSW) 3,093 ? -23.6°
Reaches altitude 10° 04:32:59 10° 199° (SSW) 2,207 ? -23.2°
Maximum altitude 04:37:41 36° 132° (SE) 1,158 ? -22.5°
Drops below altitude 10° 04:42:32 10° 65° (ENE) 2,281 ? -21.7°
Sets 04:45:07 0° 56° (NE) 3,211 ? -21.3°
